This is the latest recevied weather packets stored in our database for station/object PA3DZX-13. If no packets are shown the sender has not sent any weather packets the latest 10 day(s).
| Time | Temp. | Humidity | Pressure | Rain* | Wind** | Luminosity | Snow |
|---|---|---|---|---|---|---|---|
| 1777785769 | 12.78° C | 99% | 1011.4 hPa | 0 mm | - | - | - |
| 1777784868 | 12.78° C | 98% | 1011.4 hPa | 0 mm | - | - | - |
| 1777783968 | 12.78° C | 96% | 1011.4 hPa | 0 mm | - | - | - |
| 1777783068 | 12.78° C | 96% | 1011.5 hPa | 0 mm | - | - | - |
| 1777782167 | 12.78° C | 97% | 1011.7 hPa | 0 mm | - | - | - |
| 1777781267 | 12.78° C | 96% | 1011.6 hPa | 0 mm | - | - | - |
| 1777780367 | 12.78° C | 97% | 1011.5 hPa | 0.25 mm | - | - | - |
| 1777779468 | 12.78° C | 99% | 1011.9 hPa | 0 mm | - | - | - |
| 1777778566 | 12.78° C | 99% | 1011.9 hPa | 0 mm | - | - | - |
| 1777777665 | 12.78° C | 99% | 1012.4 hPa | 2.03 mm | - | - | - |
| 1777776765 | 12.78° C | 99% | 1012.3 hPa | 3.56 mm | - | - | - |
| 1777775865 | 11.67° C | 99% | 1013.2 hPa | 0 mm | - | - | - |
| 1777774965 | 11.67° C | 99% | 1013 hPa | 0 mm | - | - | - |
| 1777774065 | 11.67° C | 99% | 1012.6 hPa | 0 mm | - | - | - |
| 1777773164 | 10.56° C | 98% | 1012.7 hPa | 0 mm | - | - | - |
| 1777772265 | 10.56° C | 97% | 1012.8 hPa | 0 mm | - | - | - |
| 1777771362 | 11.67° C | 98% | 1012.9 hPa | 0 mm | - | - | - |
| 1777770462 | 12.78° C | 97% | 1012.7 hPa | 0 mm | - | - | - |
| 1777769561 | 12.78° C | 98% | 1013 hPa | 0 mm | - | - | - |
| 1777768661 | 12.78° C | 98% | 1013.7 hPa | 0 mm | - | - | - |
| 1777767761 | 12.78° C | 95% | 1013.8 hPa | 0 mm | - | - | - |
| 1777766861 | 13.89° C | 95% | 1014.3 hPa | 0 mm | - | - | - |
| 1777765961 | 12.78° C | 97% | 1014.5 hPa | 0 mm | - | - | - |
| 1777765061 | 13.89° C | 95% | 1014.1 hPa | 0 mm | - | - | - |
| 1777764161 | 13.89° C | 94% | 1014.1 hPa | 0 mm | - | - | - |
* Rain latest hour (hover to see other rain measurements)
** Current wind speed in m/s (hover to see current wind gust speed)